This is the latest recevied weather packets stored in our database for station/object K7KAZ. If no packets are shown the sender has not sent any weather packets the latest 10 day(s).
| Time | Temp. | Humidity | Pressure | Rain* | Wind** | Luminosity | Snow |
|---|---|---|---|---|---|---|---|
| 1778065087 | 15° C | 48% | 1016.6 hPa | 0 mm | - | 0 W/m² | - |
| 1778064783 | 15° C | 48% | 1016.5 hPa | 0 mm | - | 0 W/m² | - |
| 1778064481 | 15° C | 48% | 1016.5 hPa | 0 mm | - | 0 W/m² | - |
| 1778064179 | 15.56° C | 46% | 1016.5 hPa | 0 mm | - | 0 W/m² | - |
| 1778063876 | 15.56° C | 45% | 1016.5 hPa | 0 mm | - | 0 W/m² | - |
| 1778063573 | 15.56° C | 45% | 1016.5 hPa | 0 mm | - | 0 W/m² | - |
| 1778063271 | 16.11° C | 43% | 1016.6 hPa | 0 mm | - | 0 W/m² | - |
| 1778062969 | 16.67° C | 43% | 1016.4 hPa | 0 mm | - | 0 W/m² | - |
| 1778062665 | 16.67° C | 43% | 1016.4 hPa | 0 mm | - | 0 W/m² | - |
| 1778062362 | 16.11° C | 43% | 1016.6 hPa | 0 mm | - | 0 W/m² | - |
| 1778062060 | 16.11° C | 43% | 1016.2 hPa | 0 mm | - | 0 W/m² | - |
| 1778061758 | 16.11° C | 44% | 1016.2 hPa | 0 mm | - | 0 W/m² | - |
| 1778061456 | 16.11° C | 43% | 1016.3 hPa | 0 mm | - | 0 W/m² | - |
| 1778061152 | 16.11° C | 44% | 1016.2 hPa | 0 mm | - | 0 W/m² | - |
| 1778060849 | 16.11° C | 44% | 1016.3 hPa | 0 mm | - | 0 W/m² | - |
| 1778060547 | 15.56° C | 44% | 1016.3 hPa | 0 mm | - | 0 W/m² | - |
| 1778060246 | 15.56° C | 45% | 1016.5 hPa | 0 mm | - | 0 W/m² | - |
| 1778059943 | 15.56° C | 45% | 1016.5 hPa | 0 mm | - | 0 W/m² | - |
| 1778059641 | 15.56° C | 45% | 1016.4 hPa | 0 mm | - | 0 W/m² | - |
| 1778059338 | 15.56° C | 47% | 1016.2 hPa | 0 mm | - | 0 W/m² | - |
| 1778059035 | 15.56° C | 48% | 1016.3 hPa | 0 mm | - | 0 W/m² | - |
| 1778058732 | 15.56° C | 49% | 1016.3 hPa | 0 mm | - | 0 W/m² | - |
| 1778058430 | 16.11° C | 48% | 1016.4 hPa | 0 mm | - | 0 W/m² | - |
| 1778058127 | 16.11° C | 46% | 1016.3 hPa | 0 mm | - | 0 W/m² | - |
| 1778057824 | 16.11° C | 45% | 1016.2 hPa | 0 mm | - | 0 W/m² | - |
* Rain latest hour (hover to see other rain measurements)
** Current wind speed in m/s (hover to see current wind gust speed)